Time,TemperatureF,DewpointF,PressureIn,WindDirection,WindDirectionDegrees,WindSpeedMPH,WindSpeedGustMPH,Humidity,HourlyPrecipIn,Conditions,Clouds,dailyrainin,SoftwareType,DateUTC
2013-07-05 00:01:00,80.0,64.0,29.95,WSW,248,0.0,5.0,58,0.00,,,0.00,,2013-07-05 05:01:00,
2013-07-05 00:12:00,79.0,63.0,29.96,WSW,240,0.0,2.0,59,0.00,,,0.00,,2013-07-05 05:12:00,
2013-07-05 00:22:00,79.0,63.0,29.96,WSW,240,0.0,2.0,59,0.00,,,0.00,,2013-07-05 05:22:00,
2013-07-05 00:33:00,78.0,63.0,29.95,WSW,248,0.0,0.0,61,0.00,,,0.00,,2013-07-05 05:33:00,
2013-07-05 00:43:00,78.0,63.0,29.95,WSW,248,0.0,0.0,61,0.00,,,0.00,,2013-07-05 05:43:00,
2013-07-05 00:52:00,77.0,63.0,29.96,ESE,104,0.0,0.0,63,0.00,,,0.00,,2013-07-05 05:52:00,
2013-07-05 01:02:00,77.0,63.0,29.95,SE,139,0.0,2.0,63,0.00,,,0.00,,2013-07-05 06:02:00,
2013-07-05 01:13:00,77.0,63.0,29.95,SE,139,0.0,2.0,63,0.00,,,0.00,,2013-07-05 06:13:00,
2013-07-05 01:23:00,77.0,63.0,29.95,WSW,245,0.0,2.0,63,0.00,,,0.00,,2013-07-05 06:23:00,
2013-07-05 01:34:00,76.0,63.0,29.95,SSE,150,0.0,2.0,64,0.00,,,0.00,,2013-07-05 06:34:00,
2013-07-05 01:43:00,76.0,63.0,29.95,SSE,150,0.0,2.0,64,0.00,,,0.00,,2013-07-05 06:43:00,
2013-07-05 01:53:00,76.0,63.0,29.95,ENE,74,0.0,0.0,65,0.00,,,0.00,,2013-07-05 06:53:00,
2013-07-05 02:02:00,75.0,63.0,29.95,ENE,73,0.0,0.0,67,0.00,,,0.00,,2013-07-05 07:02:00,
2013-07-05 02:12:00,75.0,63.0,29.95,ENE,73,0.0,0.0,67,0.00,,,0.00,,2013-07-05 07:12:00,
2013-07-05 02:23:00,75.0,64.0,29.95,South,180,0.0,0.0,68,0.00,,,0.00,,2013-07-05 07:23:00,
2013-07-05 02:33:00,74.0,64.0,29.95,South,180,0.0,0.0,70,0.00,,,0.00,,2013-07-05 07:33:00,
2013-07-05 02:43:00,74.0,64.0,29.95,South,180,0.0,0.0,70,0.00,,,0.00,,2013-07-05 07:43:00,
2013-07-05 02:53:00,74.0,64.0,29.94,East,95,0.0,0.0,70,0.00,,,0.00,,2013-07-05 07:53:00,
2013-07-05 03:02:00,74.0,63.0,29.94,SW,228,0.0,1.0,69,0.00,,,0.00,,2013-07-05 08:02:00,
2013-07-05 03:12:00,74.0,63.0,29.94,SW,228,0.0,1.0,69,0.00,,,0.00,,2013-07-05 08:12:00,
2013-07-05 03:23:00,74.0,63.0,29.95,North,8,0.0,1.0,68,0.00,,,0.00,,2013-07-05 08:23:00,
2013-07-05 03:33:00,74.0,62.0,29.95,SSE,152,0.0,1.0,66,0.00,,,0.00,,2013-07-05 08:33:00,
2013-07-05 03:43:00,74.0,62.0,29.95,SSE,152,0.0,1.0,66,0.00,,,0.00,,2013-07-05 08:43:00,
2013-07-05 04:46:00,74.0,63.0,29.94,ENE,61,0.0,0.0,68,0.00,,,0.00,,2013-07-05 09:46:00,
2013-07-05 04:56:00,73.0,62.0,29.94,ENE,74,0.0,0.0,69,0.00,,,0.00,,2013-07-05 09:56:00,
2013-07-05 05:05:00,73.0,63.0,29.95,ENE,63,0.0,1.0,70,0.00,,,0.00,,2013-07-05 10:05:00,
2013-07-05 05:25:00,72.0,62.0,29.95,ENE,65,0.0,0.0,71,0.00,,,0.00,,2013-07-05 10:25:00,
2013-07-05 05:35:00,72.0,62.0,29.95,East,98,0.0,1.0,70,0.00,,,0.00,,2013-07-05 10:35:00,
2013-07-05 05:46:00,72.0,62.0,29.95,East,98,0.0,1.0,70,0.00,,,0.00,,2013-07-05 10:46:00,
2013-07-05 05:57:00,73.0,62.0,29.95,East,98,0.0,0.0,69,0.00,,,0.00,,2013-07-05 10:57:00,
2013-07-05 06:05:00,72.0,61.0,29.95,East,97,0.0,0.0,69,0.00,,,0.00,,2013-07-05 11:05:00,
2013-07-05 06:15:00,72.0,61.0,29.95,East,97,0.0,0.0,69,0.00,,,0.00,,2013-07-05 11:15:00,
2013-07-05 06:23:00,72.0,62.0,29.95,East,98,0.0,0.0,70,0.00,,,0.00,,2013-07-05 11:23:00,
2013-07-05 06:37:00,71.0,62.0,29.95,East,97,0.0,0.0,72,0.00,,,0.00,,2013-07-05 11:37:00,
2013-07-05 06:45:00,71.0,62.0,29.95,East,97,0.0,0.0,72,0.00,,,0.00,,2013-07-05 11:45:00,
2013-07-05 07:00:00,71.0,62.0,29.96,East,97,0.0,0.0,73,0.00,,,0.00,,2013-07-05 12:00:00,
2013-07-05 07:05:00,71.0,62.0,29.96,East,97,0.0,0.0,73,0.00,,,0.00,,2013-07-05 12:05:00,
2013-07-05 07:14:00,71.0,62.0,29.96,East,97,0.0,0.0,73,0.00,,,0.00,,2013-07-05 12:14:00,
2013-07-05 07:24:00,71.0,62.0,29.96,East,97,0.0,0.0,74,0.00,,,0.00,,2013-07-05 12:24:00,
2013-07-05 07:35:00,71.0,63.0,29.96,East,97,0.0,0.0,75,0.00,,,0.00,,2013-07-05 12:35:00,
2013-07-05 07:46:00,71.0,63.0,29.96,East,97,0.0,0.0,75,0.00,,,0.00,,2013-07-05 12:46:00,
2013-07-05 08:13:00,75.0,64.0,29.98,East,98,0.0,0.0,69,0.00,,,0.00,,2013-07-05 13:13:00,
2013-07-05 08:24:00,75.0,64.0,29.98,East,88,0.0,2.0,69,0.00,,,0.00,,2013-07-05 13:24:00,
2013-07-05 08:37:00,75.0,65.0,29.98,ENE,72,0.0,2.0,71,0.00,,,0.00,,2013-07-05 13:37:00,
2013-07-05 08:46:00,75.0,65.0,29.98,ENE,72,0.0,2.0,71,0.00,,,0.00,,2013-07-05 13:46:00,
2013-07-05 08:58:00,75.0,65.0,29.99,ENE,59,0.0,0.0,70,0.00,,,0.00,,2013-07-05 13:58:00,
2013-07-05 09:06:00,77.0,65.0,29.99,ENE,63,1.0,3.0,66,0.00,,,0.00,,2013-07-05 14:06:00,
2013-07-05 09:14:00,77.0,65.0,29.99,ENE,63,1.0,3.0,66,0.00,,,0.00,,2013-07-05 14:14:00,
2013-07-05 09:26:00,79.0,65.0,30.00,NE,52,0.0,3.0,63,0.00,,,0.00,,2013-07-05 14:26:00,
2013-07-05 09:36:00,79.0,65.0,30.00,NE,52,0.0,3.0,63,0.00,,,0.00,,2013-07-05 14:36:00,
2013-07-05 09:45:00,79.0,65.0,30.00,NE,52,0.0,3.0,63,0.00,,,0.00,,2013-07-05 14:45:00,
2013-07-05 09:56:00,83.0,66.0,29.99,SE,146,0.0,0.0,57,0.00,,,0.00,,2013-07-05 14:56:00,
2013-07-05 10:05:00,84.0,66.0,29.98,NE,56,0.0,2.0,54,0.00,,,0.00,,2013-07-05 15:05:00,
2013-07-05 10:15:00,84.0,66.0,29.98,NE,56,0.0,2.0,54,0.00,,,0.00,,2013-07-05 15:15:00,
2013-07-05 10:23:00,83.0,65.0,29.98,East,94,2.0,5.0,54,0.00,,,0.00,,2013-07-05 15:23:00,
2013-07-05 10:33:00,84.0,66.0,29.98,South,191,0.0,4.0,54,0.00,,,0.00,,2013-07-05 15:33:00,
2013-07-05 10:43:00,84.0,66.0,29.98,South,191,0.0,4.0,54,0.00,,,0.00,,2013-07-05 15:43:00,
2013-07-05 10:53:00,85.0,65.0,29.98,SW,222,0.0,6.0,51,0.00,,,0.00,,2013-07-05 15:53:00,
2013-07-05 11:11:00,86.0,65.0,29.98,SSW,198,2.0,7.0,49,0.00,,,0.00,,2013-07-05 16:11:00,
2013-07-05 11:22:00,87.0,65.0,29.98,SSE,166,1.0,4.0,48,0.00,,,0.00,,2013-07-05 16:22:00,
2013-07-05 11:33:00,87.0,65.0,29.98,SSE,149,1.0,8.0,48,0.00,,,0.00,,2013-07-05 16:33:00,
2013-07-05 11:44:00,87.0,65.0,29.98,SSE,149,1.0,8.0,48,0.00,,,0.00,,2013-07-05 16:44:00,
2013-07-05 11:53:00,87.0,65.0,29.98,SW,215,1.0,5.0,49,0.00,,,0.00,,2013-07-05 16:53:00,
2013-07-05 12:01:00,89.0,66.0,29.98,ESE,108,1.0,7.0,47,0.00,,,0.00,,2013-07-05 17:01:00,
2013-07-05 12:12:00,89.0,66.0,29.98,ESE,108,1.0,7.0,47,0.00,,,0.00,,2013-07-05 17:12:00,
2013-07-05 12:22:00,89.0,65.0,29.97,SSE,166,1.0,7.0,46,0.00,,,0.00,,2013-07-05 17:22:00,
2013-07-05 12:33:00,90.0,66.0,29.97,South,184,2.0,7.0,46,0.00,,,0.00,,2013-07-05 17:33:00,
2013-07-05 12:43:00,90.0,66.0,29.97,South,184,2.0,7.0,46,0.00,,,0.00,,2013-07-05 17:43:00,
2013-07-05 12:53:00,91.0,67.0,29.96,ESE,121,1.0,5.0,45,0.00,,,0.00,,2013-07-05 17:53:00,
2013-07-05 13:01:00,91.0,66.0,29.96,SE,135,0.0,7.0,44,0.00,,,0.00,,2013-07-05 18:01:00,
2013-07-05 13:11:00,91.0,66.0,29.96,SE,135,0.0,7.0,44,0.00,,,0.00,,2013-07-05 18:11:00,
2013-07-05 13:22:00,93.0,68.0,29.95,NE,47,1.0,6.0,44,0.00,,,0.00,,2013-07-05 18:22:00,
2013-07-05 13:33:00,93.0,66.0,29.95,East,79,1.0,4.0,41,0.00,,,0.00,,2013-07-05 18:33:00,
2013-07-05 13:43:00,93.0,66.0,29.95,East,79,1.0,4.0,41,0.00,,,0.00,,2013-07-05 18:43:00,
2013-07-05 13:53:00,94.0,67.0,29.94,SSW,209,0.0,4.0,41,0.00,,,0.00,,2013-07-05 18:53:00,
2013-07-05 14:01:00,94.0,63.0,29.94,SE,143,1.0,4.0,36,0.00,,,0.00,,2013-07-05 19:01:00,
2013-07-05 14:12:00,94.0,63.0,29.94,SE,143,1.0,4.0,36,0.00,,,0.00,,2013-07-05 19:12:00,
2013-07-05 14:22:00,95.0,64.0,29.93,SSW,210,0.0,6.0,36,0.00,,,0.00,,2013-07-05 19:22:00,
2013-07-05 14:33:00,95.0,65.0,29.93,ESE,114,1.0,5.0,37,0.00,,,0.00,,2013-07-05 19:33:00,
2013-07-05 14:42:00,95.0,65.0,29.93,ESE,114,1.0,5.0,37,0.00,,,0.00,,2013-07-05 19:42:00,
2013-07-05 14:53:00,95.0,65.0,29.92,NNE,31,1.0,4.0,37,0.00,,,0.00,,2013-07-05 19:53:00,
2013-07-05 15:01:00,94.0,64.0,29.92,SW,215,1.0,5.0,37,0.00,,,0.00,,2013-07-05 20:01:00,
2013-07-05 15:11:00,94.0,64.0,29.92,SW,215,1.0,5.0,37,0.00,,,0.00,,2013-07-05 20:11:00,
2013-07-05 15:22:00,96.0,64.0,29.92,ENE,60,0.0,5.0,35,0.00,,,0.00,,2013-07-05 20:22:00,
2013-07-05 15:33:00,96.0,61.0,29.91,ENE,65,0.0,4.0,32,0.00,,,0.00,,2013-07-05 20:33:00,
2013-07-05 15:43:00,96.0,61.0,29.91,ENE,65,0.0,4.0,32,0.00,,,0.00,,2013-07-05 20:43:00,
2013-07-05 15:53:00,95.0,63.0,29.90,ENE,77,2.0,7.0,35,0.00,,,0.00,,2013-07-05 20:53:00,
2013-07-05 16:01:00,95.0,64.0,29.90,ENE,68,2.0,7.0,36,0.00,,,0.00,,2013-07-05 21:01:00,
2013-07-05 16:11:00,95.0,64.0,29.90,ENE,68,2.0,7.0,36,0.00,,,0.00,,2013-07-05 21:11:00,
2013-07-05 16:22:00,95.0,64.0,29.89,NE,56,1.0,6.0,36,0.00,,,0.00,,2013-07-05 21:22:00,
2013-07-05 16:34:00,94.0,64.0,29.88,ENE,67,2.0,9.0,37,0.00,,,0.00,,2013-07-05 21:34:00,
2013-07-05 16:42:00,94.0,64.0,29.88,ENE,67,2.0,9.0,37,0.00,,,0.00,,2013-07-05 21:42:00,
2013-07-05 16:53:00,95.0,64.0,29.88,ESE,110,1.0,4.0,36,0.00,,,0.00,,2013-07-05 21:53:00,
2013-07-05 17:01:00,95.0,63.0,29.87,NE,47,3.0,6.0,35,0.00,,,0.00,,2013-07-05 22:01:00,
2013-07-05 17:11:00,95.0,63.0,29.87,NE,47,3.0,6.0,35,0.00,,,0.00,,2013-07-05 22:11:00,
2013-07-05 17:21:00,94.0,62.0,29.87,East,86,2.0,6.0,35,0.00,,,0.00,,2013-07-05 22:21:00,
2013-07-05 17:33:00,94.0,63.0,29.86,ESE,111,4.0,8.0,36,0.00,,,0.00,,2013-07-05 22:33:00,
2013-07-05 17:43:00,94.0,63.0,29.86,ESE,111,4.0,8.0,36,0.00,,,0.00,,2013-07-05 22:43:00,
2013-07-05 17:53:00,94.0,63.0,29.85,ENE,67,1.0,6.0,36,0.00,,,0.00,,2013-07-05 22:53:00,
2013-07-05 18:02:00,93.0,63.0,29.85,NE,45,2.0,9.0,37,0.00,,,0.00,,2013-07-05 23:02:00,
2013-07-05 18:11:00,93.0,63.0,29.85,NE,45,2.0,9.0,37,0.00,,,0.00,,2013-07-05 23:11:00,
2013-07-05 18:23:00,93.0,63.0,29.85,East,79,2.0,8.0,37,0.00,,,0.00,,2013-07-05 23:23:00,
2013-07-05 18:32:00,93.0,62.0,29.84,NE,47,2.0,10.0,36,0.00,,,0.00,,2013-07-05 23:32:00,
2013-07-05 18:43:00,93.0,62.0,29.84,NE,47,2.0,10.0,36,0.00,,,0.00,,2013-07-05 23:43:00,
2013-07-05 18:53:00,92.0,60.0,29.85,ENE,67,3.0,9.0,34,0.00,,,0.00,,2013-07-05 23:53:00,
2013-07-05 19:01:00,92.0,60.0,29.84,NE,44,1.0,5.0,34,0.00,,,0.00,,2013-07-06 00:01:00,
2013-07-05 19:11:00,92.0,60.0,29.84,NE,44,1.0,5.0,34,0.00,,,0.00,,2013-07-06 00:11:00,
2013-07-05 19:22:00,92.0,61.0,29.85,ENE,77,2.0,5.0,36,0.00,,,0.00,,2013-07-06 00:22:00,
2013-07-05 19:33:00,91.0,61.0,29.85,ENE,63,3.0,9.0,37,0.00,,,0.00,,2013-07-06 00:33:00,
2013-07-05 19:42:00,91.0,61.0,29.85,ENE,63,3.0,9.0,37,0.00,,,0.00,,2013-07-06 00:42:00,
2013-07-05 19:53:00,91.0,61.0,29.85,NE,56,0.0,5.0,37,0.00,,,0.00,,2013-07-06 00:53:00,
2013-07-05 20:02:00,90.0,61.0,29.85,East,96,3.0,7.0,38,0.00,,,0.00,,2013-07-06 01:02:00,
2013-07-05 20:12:00,90.0,61.0,29.85,East,96,3.0,7.0,38,0.00,,,0.00,,2013-07-06 01:12:00,
2013-07-05 20:22:00,90.0,62.0,29.85,East,82,2.0,7.0,39,0.00,,,0.00,,2013-07-06 01:22:00,
2013-07-05 20:33:00,89.0,61.0,29.85,North,354,2.0,7.0,40,0.00,,,0.00,,2013-07-06 01:33:00,
2013-07-05 20:42:00,89.0,61.0,29.85,North,354,2.0,7.0,40,0.00,,,0.00,,2013-07-06 01:42:00,
2013-07-05 20:53:00,89.0,61.0,29.86,ENE,68,3.0,8.0,40,0.00,,,0.00,,2013-07-06 01:53:00,
2013-07-05 21:02:00,89.0,61.0,29.86,ENE,68,3.0,8.0,40,0.00,,,0.00,,2013-07-06 02:02:00,
2013-07-05 21:12:00,88.0,61.0,29.86,East,79,4.0,12.0,41,0.00,,,0.00,,2013-07-06 02:12:00,
2013-07-05 21:22:00,88.0,62.0,29.86,ENE,69,1.0,6.0,42,0.00,,,0.00,,2013-07-06 02:22:00,
2013-07-05 21:33:00,88.0,62.0,29.86,ENE,69,1.0,6.0,42,0.00,,,0.00,,2013-07-06 02:33:00,
2013-07-05 21:43:00,87.0,62.0,29.87,SE,124,1.0,7.0,44,0.00,,,0.00,,2013-07-06 02:43:00,
2013-07-05 21:52:00,86.0,62.0,29.87,NE,43,0.0,7.0,45,0.00,,,0.00,,2013-07-06 02:52:00,
2013-07-05 22:02:00,86.0,62.0,29.87,NE,43,0.0,7.0,45,0.00,,,0.00,,2013-07-06 03:02:00,
2013-07-05 22:12:00,86.0,63.0,29.88,East,84,1.0,4.0,46,0.00,,,0.00,,2013-07-06 03:12:00,
2013-07-05 22:22:00,86.0,63.0,29.88,NE,40,1.0,8.0,47,0.00,,,0.00,,2013-07-06 03:22:00,
2013-07-05 22:34:00,86.0,63.0,29.88,NE,40,1.0,8.0,47,0.00,,,0.00,,2013-07-06 03:34:00,
2013-07-05 22:43:00,85.0,62.0,29.89,ENE,59,1.0,6.0,47,0.00,,,0.00,,2013-07-06 03:43:00,
2013-07-05 22:52:00,85.0,62.0,29.89,NE,54,1.0,7.0,46,0.00,,,0.00,,2013-07-06 03:52:00,
2013-07-05 23:02:00,85.0,62.0,29.89,NE,54,1.0,7.0,46,0.00,,,0.00,,2013-07-06 04:02:00,
2013-07-05 23:12:00,85.0,62.0,29.89,NE,44,1.0,6.0,46,0.00,,,0.00,,2013-07-06 04:12:00,
2013-07-05 23:22:00,85.0,62.0,29.90,ENE,70,1.0,4.0,47,0.00,,,0.00,,2013-07-06 04:22:00,
2013-07-05 23:33:00,85.0,62.0,29.90,ENE,70,1.0,4.0,47,0.00,,,0.00,,2013-07-06 04:33:00,
2013-07-05 23:43:00,84.0,62.0,29.91,NE,56,2.0,6.0,47,0.00,,,0.00,,2013-07-06 04:43:00,
2013-07-05 23:53:00,84.0,62.0,29.91,NE,51,1.0,9.0,47,0.00,,,0.00,,2013-07-06 04:53:00,